Location: Treviso
(45.6669°N, 12.2430°E)
Time: 03:40:50
(UTC+01:00)

N. Korean satellite - Visible Passes

Search period start: 17 February 2019 00:00
Search period end: 27 February 2019 00:00
Orbit: 457 x 510 km, 97.2° (Epoch: 16 February)

Date Brightness Start Highest point End Pass type
(mag) Time Alt. Az. Time Alt. Az. Time Alt. Az.
17 Feb 10.3 05:19:10 10° ENE 05:20:08 11° E 05:21:06 10° ESE visible
18 Feb 6.7 06:25:42 10° NNE 06:29:12 77° ESE 06:32:38 10° S visible
18 Feb 10.1 18:38:15 10° SW 18:40:27 15° W 18:42:39 10° NW visible
19 Feb 8.3 06:01:10 10° NNE 06:04:25 35° E 06:07:36 10° SSE visible
19 Feb 9.1 18:12:20 10° SSW 18:15:33 28° W 18:18:44 10° NW visible
20 Feb 9.6 05:37:02 10° NE 05:39:31 18° E 05:41:58 10° SE visible
22 Feb 7.0 06:20:11 10° NNE 06:23:38 65° E 06:27:03 10° S visible
22 Feb 10.0 18:32:25 10° SW 18:34:52 17° W 18:37:19 10° NW visible
23 Feb 8.7 05:55:43 10° NNE 05:58:49 30° E 06:01:53 10° SSE visible
24 Feb 9.9 05:31:43 10° NE 05:33:54 16° E 05:36:05 10° SE visible
25 Feb 10.8 18:54:09 10° W 18:54:14 10° W 18:54:19 10° W visible
26 Feb 7.3 06:14:37 10° NNE 06:18:02 55° E 06:21:24 10° S visible
26 Feb 9.9 18:26:37 10° SW 18:29:16 19° W 18:31:54 10° NW visible
